This demonstration page uses our WeatherBlox Daily Observations layout. Learn more.

Left ArrowRight Arrow

39.92423, -83.80882

Hourly Observations for April 23, 2022

Temp ( °F °C ) Dew Point ( °F °C ) Humidity (%) Winds ( mph kmh ) Pressure ( in mb ) Visibility ( mi km ) Precip ( " mm )
12:56 am 00:56 Clear 55 12.8 46 7.8 72 72 ENE 6 9 30.23 1024 10 16 0.00 0.00
1:56 am 01:56 Clear 54 12.2 46 7.8 75 75 ESE 7 11 30.21 1023 10 16 0.00 0.00
2:56 am 02:56 Clear 54 12.2 46 7.8 75 75 ESE 8 13 30.19 1022 10 16 0.00 0.00
3:56 am 03:56 Clear 55 12.8 45 7.2 69 69 ESE 7 11 30.17 1022 10 16 0.00 0.00
4:56 am 04:56 Clear 51 10.6 45 7.2 80 80 ESE 8 13 30.17 1022 10 16 0.00 0.00
5:56 am 05:56 Clear 50 10 46 7.8 86 86 ESE 6 9 30.17 1022 10 16 0.00 0.00
6:22 am 06:22 Mostly Clear 52 11 45 7 77 77 ESE 7 11 30.19 1022 10 16 0.00 0.00
6:56 am 06:56 Sunny 52 11.1 45 7.2 77 77 SE 8 13 30.19 1022 10 16 0.00 0.00
7:56 am 07:56 Sunny 57 13.9 48 8.9 72 72 SE 7 11 30.20 1023 10 16 0.00 0.00
8:03 am 08:03 Mostly Sunny 57 14 48 9 72 72 SE 7 11 30.20 1023 10 16 0.00 0.00
8:56 am 08:56 Sunny 63 17.2 48 8.9 58 58 SSE 7 11 30.20 1023 10 16 0.00 0.00
9:56 am 09:56 Sunny 70 21.1 54 12.2 57 57 S 7 11 30.19 1022 10 16 0.00 0.00
10:56 am 10:56 Sunny 75 23.9 57 13.9 54 54 SW 10 17 30.16 1022 10 16 0.00 0.00
11:56 am 11:56 Sunny 78 25.6 57 13.9 48 48 WSW 20 31 30.15 1021 10 16 0.00 0.00
12:56 pm 12:56 Sunny 78 25.6 56 13.3 47 47 S 13 20 30.14 1021 10 16 0.00 0.00
1:56 pm 13:56 Sunny 80 26.7 57 13.9 45 45 S 14 22 30.12 1020 10 16 0.00 0.00
2:56 pm 14:56 Sunny 82 27.8 54 12.2 38 38 SSW 15 24 30.09 1019 10 16 0.00 0.00
3:56 pm 15:56 Sunny 83 28.3 53 11.7 36 36 SSW 14 22 30.07 1018 10 16 0.00 0.00
4:56 pm 16:56 Sunny 83 28.3 53 11.7 36 36 S 14 22 30.04 1017 10 16 0.00 0.00
5:56 pm 17:56 Sunny 82 27.8 55 12.8 40 40 S 13 20 30.04 1017 10 16 0.00 0.00
6:56 pm 18:56 Sunny 81 27.2 54 12.2 39 39 S 10 17 30.03 1017 10 16 0.00 0.00
7:56 pm 19:56 Sunny 77 25 56 13.3 48 48 S 9 15 30.03 1017 10 16 0.00 0.00
8:56 pm 20:56 Clear 73 22.8 55 12.8 53 53 S 8 13 30.04 1017 10 16 0.00 0.00
9:56 pm 21:56 Clear 72 22.2 54 12.2 53 53 S 8 13 30.03 1017 10 16 0.00 0.00
10:56 pm 22:56 Clear 70 21.1 53 11.7 55 55 S 7 11 30.03 1017 10 16 0.00 0.00
11:56 pm 23:56 Clear 70 21.1 53 11.7 55 55 S 7 11 30.02 1017 10 16 0.00 0.00

Powered by AerisWeather